Starlink 32723

operational
NORAD ID: 62449 Int'l Des: 2024-251 Owner: SPXS Country: US Constellation: starlink
LEOCIRCULAR

Starlink 32723について

説明を読み込み中...

リアルタイム位置

3D地球を読み込み中...

次回通過

高度履歴

Altitude vs Time

uPlot chart will show altitude changes over time

軌道要素

1 62449U 24251T 25258.21441781 .00053083 00000-0 17898-2 0 9993
2 62449 53.1608 70.2739 0001217 97.8600 262.2539 15.30233627 40925
Epoch: Sep 15, 2025 • Age: 15 hours

現在のステータス

高度 494.2 km
速度 7.62 km/s
衛星直下点 -53.07°S, 43.11°E
打ち上げ日 Dec 29, 2024
運用期間 0.7 years
タイプ internet

技術仕様

分類 Payload
質量 730.00 kg
乾燥質量 700.00 kg
総質量 730.00 kg
長さ 0.30 m
直径 4.10 m
スパン 29.00 m
形状 Box + pan
製造者 SPXS
バスタイプ Starlink V2M
フェーズステータス In Orbit
所有者/国 SPXS/US

大規模コンステレーション

Loading constellations...